sat.trackr.live / text

‹ back to catalog

TIANQI-25

NORAD 59909 · 2024-102A

PAYLOAD ACTIVE UNKNOWN

§ Identity

Operator
Country
PRC
Launch date
2024-05-29
Launch site
YSLA
Launch vehicle
Mass (kg)
RCS (m²)

External: N2YO · Heavens-Above · Gunter

§ Orbital elements

Epoch: 2026-09-22T22:05:08.916576Z

Period
102.92 min
Inclination
44.9765°
Eccentricity
0.0012393
Mean motion
13.99194759 rev/d
Perigee alt
887.6 km
Apogee alt
905.6 km
Semi-major
7,274.7 km
B*
9.7052e-5
RAAN
187.0448°
Arg perigee
339.8698°
Mean anomaly
20.1644°
Rev number
11,859

§ Raw data

TIANQI-251 59909U 24102A   26265.92024209  .00000013  00000+0  97052-4 0  99902 59909  44.9765 187.0448 0012393 339.8698  20.1644 13.99194759118593

JSON: /api/v1/satellites/59909 · /tle

For live sub-satellite position, see the globe view (requires WebGL).

§ Visibility from observer

Set your observer location to see the next 7 days of passes ≥ 10°. The values pass through the URL so the page stays shareable.

No JS? Fill the form by hand. The geolocation button needs JavaScript.